Voltar ao catálogo

COSMOS 402

AtivoMilitarLEO
NORAD 5105·PAYLOAD·🇷🇺 Russia

Lançado Apr 1, 1971 de Baikonur Cosmodrome

Loading…

Próximas Passagens (próximas 24 horas)

TLE

AtualizadoSource: Space-Track

Época: Sep 14, 2026, 06:29 UTC

1 05105U 71025A   26257.27022991 -.00000081  00000-0  53462-5 0  9995
2 05105  64.9834  19.9974 0058529 252.1271 122.0602 13.73173486780264

Acompanhe COSMOS 402 em tempo real com AllMySat

Download on the App Store